Hourly Weather Lagiszyn

Today, 24 September, Thursday

Time Temperature Precipitation Wind Pressure Humidity
00:00 +18°C° 0.2 mm 2 mps 745 mmHg 85%
01:00 +17°C° 0.2 mm 2 mps 745 mmHg 87%
02:00 +17°C° 0.1 mm 2 mps 745 mmHg 88%
03:00 +17°C° 0.1 mm 3 mps 745 mmHg 88%
04:00 +16°C° 0.1 mm 3 mps 745 mmHg 89%
05:00 +16°C° 0 mm 3 mps 745 mmHg 84%
06:00 +17°C° 0 mm 3 mps 745 mmHg 80%
07:00 +17°C° 0 mm 3 mps 745 mmHg 76%
08:00 +19°C° 0 mm 3 mps 746 mmHg 68%
09:00 +21°C° 0 mm 3 mps 746 mmHg 61%
10:00 +22°C° 0 mm 3 mps 746 mmHg 54%
11:00 +23°C° 0 mm 4 mps 746 mmHg 50%
12:00 +25°C° 0 mm 4 mps 746 mmHg 47%
13:00 +27°C° 0 mm 4 mps 746 mmHg 44%
14:00 +26°C° 0.1 mm 4 mps 746 mmHg 47%
15:00 +25°C° 0.1 mm 4 mps 746 mmHg 51%
16:00 +25°C° 0.1 mm 3 mps 746 mmHg 54%
17:00 +22°C° 0 mm 3 mps 746 mmHg 60%
18:00 +21°C° 0 mm 2 mps 746 mmHg 67%
19:00 +19°C° 0 mm 2 mps 746 mmHg 73%
20:00 +20°C° 0 mm 1 mps 746 mmHg 75%
21:00 +19°C° 0 mm 1 mps 746 mmHg 77%
22:00 +18°C° 0 mm 1 mps 745 mmHg 80%
23:00 +18°C° 0 mm 1 mps 745 mmHg 81%

Tomorrow, 25 September, Friday

Time Temperature Precipitation Wind Pressure Humidity
00:00 +17°C° 0 mm 2 mps 744 mmHg 82%
01:00 +16°C° 0 mm 2 mps 744 mmHg 83%
02:00 +16°C° 0 mm 3 mps 743 mmHg 82%
03:00 +17°C° 0 mm 3 mps 742 mmHg 82%
04:00 +17°C° 0 mm 3 mps 741 mmHg 81%
05:00 +17°C° 0 mm 4 mps 741 mmHg 77%
06:00 +17°C° 0 mm 5 mps 740 mmHg 74%
07:00 +17°C° 0 mm 5 mps 739 mmHg 70%
08:00 +17°C° 0.8 mm 5 mps 739 mmHg 76%
09:00 +17°C° 0.8 mm 5 mps 739 mmHg 81%
10:00 +16°C° 0.8 mm 5 mps 738 mmHg 86%
11:00 +16°C° 0.6 mm 5 mps 738 mmHg 86%
12:00 +15°C° 0.6 mm 5 mps 738 mmHg 86%
13:00 +15°C° 0.6 mm 5 mps 739 mmHg 86%
14:00 +14°C° 1.2 mm 5 mps 739 mmHg 87%
15:00 +14°C° 1.2 mm 5 mps 739 mmHg 87%
16:00 +13°C° 1.2 mm 6 mps 739 mmHg 88%
17:00 +13°C° 0.5 mm 5 mps 740 mmHg 88%
18:00 +13°C° 0.5 mm 5 mps 740 mmHg 88%
19:00 +13°C° 0.5 mm 4 mps 741 mmHg 88%
20:00 +12°C° 0.1 mm 4 mps 741 mmHg 85%
21:00 +12°C° 0.1 mm 4 mps 741 mmHg 82%
22:00 +11°C° 0.1 mm 4 mps 742 mmHg 79%
23:00 +11°C° 0 mm 3 mps 742 mmHg 79%

Day after tomorrow, 26 September, Saturday

Time Temperature Precipitation Wind Pressure Humidity
00:00 +11°C° 0 mm 3 mps 742 mmHg 78%
01:00 +12°C° 0 mm 2 mps 742 mmHg 78%
02:00 +12°C° 0 mm 2 mps 741 mmHg 79%
03:00 +12°C° 0 mm 2 mps 741 mmHg 79%
04:00 +10°C° 0 mm 2 mps 741 mmHg 80%
05:00 +10°C° 0.6 mm 3 mps 741 mmHg 82%
06:00 +10°C° 0.6 mm 4 mps 740 mmHg 84%
07:00 +9°C° 0.6 mm 5 mps 740 mmHg 86%
08:00 +8°C° 3.1 mm 6 mps 740 mmHg 88%
09:00 +8°C° 3.1 mm 6 mps 740 mmHg 89%
10:00 +8°C° 3.1 mm 7 mps 740 mmHg 91%
11:00 +8°C° 1.9 mm 7 mps 740 mmHg 91%
12:00 +8°C° 1.9 mm 7 mps 739 mmHg 91%
13:00 +8°C° 1.9 mm 7 mps 739 mmHg 91%
14:00 +8°C° 0.6 mm 6 mps 739 mmHg 90%
15:00 +8°C° 0.6 mm 6 mps 739 mmHg 90%
16:00 +8°C° 0.6 mm 6 mps 739 mmHg 89%
17:00 +8°C° 0 mm 5 mps 739 mmHg 90%
18:00 +8°C° 0 mm 5 mps 739 mmHg 90%
19:00 +8°C° 0 mm 5 mps 740 mmHg 91%
20:00 +8°C° 0 mm 4 mps 740 mmHg 91%
21:00 +8°C° 0 mm 4 mps 740 mmHg 92%
22:00 +9°C° 0 mm 3 mps 740 mmHg 93%
23:00 +8°C° 0.5 mm 4 mps 740 mmHg 93%

27 September, Sunday

Time Temperature Precipitation Wind Pressure Humidity
00:00 +8°C° 0.5 mm 4 mps 739 mmHg 94%
01:00 +8°C° 0.5 mm 4 mps 739 mmHg 94%
02:00 +8°C° 2.2 mm 4 mps 739 mmHg 94%
03:00 +10°C° 2.2 mm 4 mps 738 mmHg 95%
04:00 +9°C° 2.2 mm 5 mps 738 mmHg 95%
05:00 +9°C° 1.7 mm 5 mps 738 mmHg 94%
06:00 +9°C° 1.7 mm 5 mps 738 mmHg 94%
07:00 +9°C° 1.7 mm 6 mps 738 mmHg 93%
08:00 +9°C° 0.3 mm 6 mps 738 mmHg 93%
09:00 +8°C° 0.3 mm 6 mps 739 mmHg 92%
10:00 +8°C° 0.3 mm 6 mps 739 mmHg 91%
11:00 +8°C° 0.9 mm 6 mps 739 mmHg 91%
12:00 +8°C° 0.9 mm 6 mps 739 mmHg 91%
13:00 +8°C° 0.9 mm 6 mps 740 mmHg 91%
14:00 +8°C° 0.6 mm 6 mps 740 mmHg 91%
15:00 +8°C° 0.6 mm 6 mps 740 mmHg 90%
16:00 +8°C° 0.6 mm 6 mps 741 mmHg 90%
17:00 +8°C° 0.2 mm 6 mps 741 mmHg 90%
18:00 +8°C° 0.2 mm 6 mps 742 mmHg 90%
19:00 +8°C° 0.2 mm 5 mps 742 mmHg 90%
20:00 +8°C° 0.1 mm 5 mps 742 mmHg 90%
21:00 +8°C° 0.1 mm 5 mps 743 mmHg 90%
22:00 +8°C° 0.1 mm 4 mps 743 mmHg 90%
23:00 +8°C° 0.2 mm 4 mps 743 mmHg 90%

28 September, Monday

Time Temperature Precipitation Wind Pressure Humidity
00:00 +8°C° 0.2 mm 5 mps 743 mmHg 90%
01:00 +8°C° 0.2 mm 5 mps 743 mmHg 90%
02:00 +8°C° 0.1 mm 4 mps 743 mmHg 90%
03:00 +8°C° 0.1 mm 4 mps 743 mmHg 90%
04:00 +8°C° 0.1 mm 4 mps 743 mmHg 91%
05:00 +8°C° 0.1 mm 4 mps 743 mmHg 91%
06:00 +9°C° 0.1 mm 3 mps 743 mmHg 91%
07:00 +9°C° 0.1 mm 3 mps 743 mmHg 91%
08:00 +9°C° 0.1 mm 3 mps 743 mmHg 89%
09:00 +9°C° 0.1 mm 3 mps 743 mmHg 88%
10:00 +10°C° 0.1 mm 3 mps 743 mmHg 87%
11:00 +10°C° 0.1 mm 3 mps 743 mmHg 86%
12:00 +10°C° 0.1 mm 3 mps 743 mmHg 85%
13:00 +10°C° 0.1 mm 3 mps 744 mmHg 85%
14:00 +10°C° 0.6 mm 3 mps 744 mmHg 87%
15:00 +10°C° 0.6 mm 3 mps 743 mmHg 89%
16:00 +10°C° 0.6 mm 2 mps 743 mmHg 91%
17:00 +9°C° 0.6 mm 3 mps 744 mmHg 92%
18:00 +9°C° 0.6 mm 3 mps 744 mmHg 92%
19:00 +9°C° 0.6 mm 3 mps 744 mmHg 93%
20:00 +9°C° 0.3 mm 3 mps 744 mmHg 93%
21:00 +9°C° 0.3 mm 3 mps 744 mmHg 93%
22:00 +10°C° 0.3 mm 3 mps 744 mmHg 93%
23:00 +10°C° 0.1 mm 3 mps 744 mmHg 93%

29 September, Tuesday

Time Temperature Precipitation Wind Pressure Humidity
00:00 +10°C° 0.1 mm 3 mps 744 mmHg 93%
01:00 +10°C° 0.1 mm 3 mps 744 mmHg 92%
02:00 +10°C° 0 mm 3 mps 744 mmHg 92%
03:00 +10°C° 0 mm 4 mps 744 mmHg 91%
04:00 +10°C° 0 mm 4 mps 744 mmHg 90%
05:00 +10°C° 0 mm 3 mps 744 mmHg 90%
06:00 +9°C° 0 mm 3 mps 744 mmHg 91%
07:00 +9°C° 0 mm 2 mps 744 mmHg 91%
08:00 +12°C° 0 mm 2 mps 745 mmHg 86%
09:00 +13°C° 0 mm 2 mps 745 mmHg 80%
10:00 +14°C° 0 mm 2 mps 745 mmHg 75%
11:00 +15°C° 0 mm 2 mps 745 mmHg 71%
12:00 +16°C° 0 mm 1 mps 746 mmHg 68%
13:00 +16°C° 0 mm 1 mps 746 mmHg 64%
14:00 +16°C° 0 mm 1 mps 746 mmHg 64%
15:00 +16°C° 0 mm 1 mps 747 mmHg 65%
16:00 +16°C° 0 mm 2 mps 747 mmHg 66%
17:00 +15°C° 0.1 mm 2 mps 747 mmHg 70%
18:00 +14°C° 0.1 mm 2 mps 747 mmHg 74%
19:00 +13°C° 0.1 mm 2 mps 748 mmHg 79%
20:00 +12°C° 0 mm 2 mps 748 mmHg 81%
21:00 +12°C° 0 mm 2 mps 748 mmHg 84%
22:00 +10°C° 0 mm 2 mps 748 mmHg 87%
23:00 +10°C° 0 mm 2 mps 748 mmHg 89%
Show more